ISS596 LIPX-LIRN

Flight info

Callsign ISS596
Flight time 1h 2m
Altitude 39000
Route TUVDE Y922 KOPER DCT LUMAV DCT EVULI DCT ERIKA
Aircraft A20N/M-SDE2E3FGHIRWXY/LB1

Departure

Time 2026-04-24 05:47
Airport Verona Villafranca Valerio Catullo Airport (LIPX)

Arrival

Time 2026-04-24 06:50
Airport Naples International Airport (LIRN)
Time Latitude Longitude Altitude Speed Heading
2026-04-24 05:07 45.40301 10.90594 236 ft 0 kts 134°
2026-04-24 05:32 45.40301 10.90593 236 ft 0 kts 134°
2026-04-24 05:34 45.40315 10.90573 236 ft 2 kts 134°
2026-04-24 05:34 45.40325 10.90558 236 ft 2 kts 134°
2026-04-24 05:34 45.40334 10.90544 237 ft 1 kts 139°
2026-04-24 05:34 45.40343 10.90541 236 ft 1 kts 204°
2026-04-24 05:35 45.40347 10.90545 236 ft 1 kts 235°
2026-04-24 05:35 45.40351 10.90552 236 ft 0 kts 226°
2026-04-24 05:39 45.40350 10.90550 237 ft 0 kts 226°
2026-04-24 05:39 45.40328 10.90519 237 ft 7 kts 225°
2026-04-24 05:39 45.40286 10.90460 237 ft 9 kts 224°
2026-04-24 05:39 45.40265 10.90377 238 ft 10 kts 298°
2026-04-24 05:40 45.40314 10.90301 238 ft 10 kts 315°
2026-04-24 05:40 45.40326 10.90209 239 ft 10 kts 258°
2026-04-24 05:40 45.40311 10.90125 240 ft 7 kts 255°
2026-04-24 05:40 45.40299 10.90056 241 ft 7 kts 255°
2026-04-24 05:41 45.40288 10.89974 241 ft 10 kts 277°
2026-04-24 05:41 45.40337 10.89880 242 ft 13 kts 315°
2026-04-24 05:41 45.40401 10.89791 244 ft 9 kts 315°
2026-04-24 05:41 45.40395 10.89707 244 ft 12 kts 229°
2026-04-24 05:42 45.40319 10.89595 244 ft 16 kts 226°
2026-04-24 05:42 45.40239 10.89475 245 ft 16 kts 226°
2026-04-24 05:42 45.40155 10.89353 244 ft 17 kts 225°
2026-04-24 05:42 45.40069 10.89230 244 ft 17 kts 225°
2026-04-24 05:43 45.39982 10.89103 244 ft 18 kts 226°
2026-04-24 05:43 45.39894 10.88972 244 ft 18 kts 225°
2026-04-24 05:43 45.39801 10.88841 243 ft 18 kts 225°
2026-04-24 05:43 45.39709 10.88706 242 ft 19 kts 226°
2026-04-24 05:44 45.39613 10.88563 241 ft 20 kts 225°
2026-04-24 05:44 45.39511 10.88419 239 ft 21 kts 225°
2026-04-24 05:44 45.39406 10.88267 238 ft 21 kts 226°
2026-04-24 05:44 45.39299 10.88112 234 ft 22 kts 226°
2026-04-24 05:45 45.39186 10.87945 231 ft 23 kts 226°
2026-04-24 05:45 45.39069 10.87774 228 ft 24 kts 226°
2026-04-24 05:45 45.38958 10.87613 226 ft 15 kts 225°
2026-04-24 05:45 45.38904 10.87535 226 ft 10 kts 225°
2026-04-24 05:46 45.38858 10.87503 226 ft 8 kts 168°
2026-04-24 05:46 45.38807 10.87562 225 ft 10 kts 136°
2026-04-24 05:46 45.38753 10.87640 224 ft 7 kts 118°
2026-04-24 05:46 45.38780 10.87703 224 ft 9 kts 38°
2026-04-24 05:47 45.38839 10.87787 225 ft 24 kts 46°
2026-04-24 05:47 45.39158 10.88252 233 ft 105 kts 46°
2026-04-24 05:47 45.39825 10.89215 400 ft 153 kts 44°
2026-04-24 05:47 45.40566 10.90256 1122 ft 152 kts 43°
2026-04-24 05:48 45.41222 10.91427 1850 ft 158 kts 69°
2026-04-24 05:48 45.41204 10.92993 2469 ft 174 kts 110°
2026-04-24 05:48 45.40453 10.94405 3083 ft 189 kts 130°
2026-04-24 05:48 45.39592 10.95928 3663 ft 206 kts 124°
2026-04-24 05:49 45.38799 10.97690 4266 ft 224 kts 118°
2026-04-24 05:49 45.38027 10.99706 4857 ft 242 kts 116°
2026-04-24 05:49 45.37230 11.01871 5599 ft 255 kts 117°
2026-04-24 05:49 45.36382 11.04116 6394 ft 266 kts 117°
2026-04-24 05:50 45.35494 11.06474 7190 ft 276 kts 116°
2026-04-24 05:50 45.34628 11.08921 8061 ft 283 kts 115°
2026-04-24 05:50 45.33751 11.11429 8961 ft 286 kts 116°
2026-04-24 05:50 45.32860 11.13926 9836 ft 289 kts 115°
2026-04-24 05:51 45.31941 11.16498 10572 ft 298 kts 115°
2026-04-24 05:51 45.31004 11.19169 11192 ft 309 kts 114°
2026-04-24 05:51 45.30054 11.21914 11994 ft 314 kts 113°
2026-04-24 05:51 45.29099 11.24679 12850 ft 316 kts 113°
2026-04-24 05:52 45.28135 11.27467 13696 ft 318 kts 112°
2026-04-24 05:52 45.27165 11.30276 14517 ft 320 kts 112°
2026-04-24 05:52 45.26193 11.33085 15322 ft 321 kts 112°
2026-04-24 05:52 45.25207 11.35938 16115 ft 323 kts 112°
2026-04-24 05:53 45.24225 11.38771 16885 ft 325 kts 111°
2026-04-24 05:53 45.23238 11.41615 17630 ft 326 kts 111°
2026-04-24 05:53 45.22234 11.44505 18396 ft 327 kts 111°
2026-04-24 05:53 45.21233 11.47385 19129 ft 329 kts 111°
2026-04-24 05:54 45.20224 11.50289 19783 ft 332 kts 111°
2026-04-24 05:54 45.19198 11.53230 20441 ft 336 kts 111°
2026-04-24 05:54 45.18164 11.56193 21098 ft 339 kts 111°
2026-04-24 05:54 45.17102 11.59175 21760 ft 343 kts 114°
2026-04-24 05:55 45.15559 11.61798 22329 ft 360 kts 136°
2026-04-24 05:55 45.13332 11.63499 22940 ft 376 kts 157°
2026-04-24 05:55 45.10695 11.63963 23515 ft 391 kts 177°
2026-04-24 05:55 45.08003 11.63740 24115 ft 395 kts 179°
2026-04-24 05:56 45.05251 11.63479 24682 ft 398 kts 178°
2026-04-24 05:56 45.02468 11.63231 25233 ft 401 kts 178°
2026-04-24 05:56 44.99670 11.63003 25781 ft 405 kts 178°
2026-04-24 05:56 44.96865 11.62787 26336 ft 407 kts 178°
2026-04-24 05:57 44.94061 11.62580 26861 ft 410 kts 178°
2026-04-24 05:57 44.91204 11.62371 27387 ft 413 kts 178°
2026-04-24 05:57 44.88324 11.62161 27885 ft 415 kts 178°
2026-04-24 05:57 44.85444 11.61956 28354 ft 418 kts 176°
2026-04-24 05:58 44.82579 11.62130 28804 ft 414 kts 167°
2026-04-24 05:58 44.79774 11.62987 29238 ft 410 kts 156°
2026-04-24 05:58 44.77139 11.64470 29638 ft 408 kts 149°
2026-04-24 05:58 44.74576 11.66220 30045 ft 410 kts 148°
2026-04-24 05:59 44.72007 11.68014 30426 ft 412 kts 148°
2026-04-24 05:59 44.69468 11.69782 30821 ft 414 kts 148°
2026-04-24 05:59 44.66866 11.71581 31173 ft 416 kts 148°
2026-04-24 05:59 44.64292 11.73352 31499 ft 418 kts 148°
2026-04-24 06:00 44.61687 11.75137 31839 ft 420 kts 148°
2026-04-24 06:00 44.59027 11.76955 32173 ft 422 kts 148°
2026-04-24 06:00 44.56402 11.78745 32504 ft 423 kts 149°
2026-04-24 06:00 44.53749 11.80549 32822 ft 425 kts 149°
2026-04-24 06:01 44.51102 11.82345 33120 ft 427 kts 149°
2026-04-24 06:01 44.48417 11.84165 33391 ft 429 kts 148°
2026-04-24 06:01 44.45747 11.85973 33665 ft 431 kts 149°
2026-04-24 06:01 44.43032 11.87810 33961 ft 432 kts 148°
2026-04-24 06:02 44.40330 11.89636 34337 ft 431 kts 148°
2026-04-24 06:02 44.37648 11.91448 34778 ft 430 kts 149°
2026-04-24 06:02 44.34989 11.93242 35181 ft 427 kts 149°
2026-04-24 06:02 44.32328 11.95036 35513 ft 427 kts 149°
2026-04-24 06:03 44.29667 11.96826 35845 ft 426 kts 149°
2026-04-24 06:03 44.26975 11.98636 36180 ft 426 kts 149°
2026-04-24 06:03 44.24343 12.00402 36517 ft 425 kts 149°
2026-04-24 06:03 44.21668 12.02197 36863 ft 424 kts 149°
2026-04-24 06:04 44.19021 12.03973 37113 ft 424 kts 149°
2026-04-24 06:04 44.16367 12.05754 37117 ft 423 kts 149°
2026-04-24 06:04 44.11089 12.09287 37121 ft 423 kts 149°
2026-04-24 06:05 44.05788 12.12826 37122 ft 423 kts 149°
2026-04-24 06:05 44.00471 12.16369 37121 ft 424 kts 149°
2026-04-24 06:06 43.95179 12.19892 37123 ft 424 kts 149°
2026-04-24 06:06 43.89924 12.23381 37122 ft 423 kts 149°
2026-04-24 06:07 43.84566 12.26930 37120 ft 424 kts 149°
2026-04-24 06:07 43.79268 12.30434 37108 ft 424 kts 149°
2026-04-24 06:08 43.73982 12.33923 37108 ft 423 kts 149°
2026-04-24 06:08 43.68671 12.37422 37111 ft 424 kts 149°
2026-04-24 06:09 43.63358 12.40914 37116 ft 423 kts 149°
2026-04-24 06:09 43.58031 12.44406 37114 ft 424 kts 149°
2026-04-24 06:10 43.55395 12.46133 36758 ft 424 kts 149°
2026-04-24 06:10 43.52740 12.47871 36997 ft 424 kts 149°
2026-04-24 06:11 43.44727 12.53105 37115 ft 425 kts 149°
2026-04-24 06:11 43.39397 12.56572 37118 ft 425 kts 149°
2026-04-24 06:12 43.34081 12.60027 37121 ft 425 kts 149°
2026-04-24 06:12 43.28739 12.63493 37124 ft 425 kts 149°
2026-04-24 06:13 43.23367 12.66974 37124 ft 426 kts 150°
2026-04-24 06:13 43.18027 12.70426 37123 ft 426 kts 150°
2026-04-24 06:14 43.12687 12.73871 37125 ft 426 kts 150°
2026-04-24 06:14 43.07333 12.77316 37125 ft 426 kts 150°
2026-04-24 06:15 43.01992 12.80747 37128 ft 425 kts 150°
2026-04-24 06:15 42.96653 12.84174 37122 ft 426 kts 150°
2026-04-24 06:16 42.91270 12.87620 37130 ft 427 kts 150°
2026-04-24 06:16 42.85917 12.91039 37122 ft 427 kts 150°
2026-04-24 06:17 42.80543 12.94465 37118 ft 427 kts 150°
2026-04-24 06:17 42.75148 12.97896 37119 ft 428 kts 150°
2026-04-24 06:18 42.69780 13.01308 37114 ft 428 kts 150°
2026-04-24 06:18 42.64381 13.04732 37118 ft 428 kts 150°
2026-04-24 06:19 42.59002 13.08134 37120 ft 428 kts 150°
2026-04-24 06:19 42.53590 13.11556 37109 ft 428 kts 151°
2026-04-24 06:20 42.48203 13.14950 37113 ft 429 kts 151°
2026-04-24 06:20 42.42805 13.18341 37119 ft 429 kts 150°
2026-04-24 06:21 42.37391 13.21738 37120 ft 428 kts 151°
2026-04-24 06:21 42.32023 13.25104 37121 ft 428 kts 150°
2026-04-24 06:21 42.29342 13.26782 36672 ft 425 kts 151°
2026-04-24 06:22 42.26668 13.28452 36109 ft 424 kts 151°
2026-04-24 06:22 42.24013 13.30111 35580 ft 424 kts 150°
2026-04-24 06:22 42.21373 13.31894 34992 ft 424 kts 147°
2026-04-24 06:22 42.18840 13.33862 34396 ft 423 kts 143°
2026-04-24 06:23 42.16379 13.36046 33779 ft 422 kts 140°
2026-04-24 06:23 42.14062 13.38382 33126 ft 421 kts 136°
2026-04-24 06:23 42.11830 13.40929 32466 ft 420 kts 133°
2026-04-24 06:23 42.09708 13.43597 31842 ft 419 kts 132°
2026-04-24 06:24 42.07606 13.46272 31434 ft 412 kts 132°
2026-04-24 06:24 42.05546 13.48884 31033 ft 407 kts 132°
2026-04-24 06:24 42.03512 13.51450 30620 ft 402 kts 132°
2026-04-24 06:24 42.01487 13.54012 30198 ft 397 kts 132°
2026-04-24 06:25 41.99479 13.56551 29775 ft 393 kts 132°
2026-04-24 06:25 41.97507 13.59043 29347 ft 390 kts 132°
2026-04-24 06:25 41.95544 13.61505 28905 ft 387 kts 132°
2026-04-24 06:25 41.93612 13.63939 28477 ft 384 kts 132°
2026-04-24 06:26 41.91666 13.66404 28042 ft 382 kts 133°
2026-04-24 06:26 41.89740 13.68827 27604 ft 380 kts 133°
2026-04-24 06:26 41.87820 13.71234 27169 ft 377 kts 133°
2026-04-24 06:26 41.85908 13.73630 26741 ft 375 kts 134°
2026-04-24 06:27 41.84003 13.76006 26315 ft 373 kts 134°
2026-04-24 06:27 41.82135 13.78336 25892 ft 370 kts 134°
2026-04-24 06:27 41.80273 13.80661 25475 ft 368 kts 134°
2026-04-24 06:27 41.78404 13.82996 25050 ft 366 kts 134°
2026-04-24 06:28 41.76546 13.85319 24623 ft 365 kts 134°
2026-04-24 06:28 41.74703 13.87621 24197 ft 364 kts 134°
2026-04-24 06:28 41.72858 13.89926 23772 ft 362 kts 134°
2026-04-24 06:28 41.71022 13.92213 23346 ft 361 kts 134°
2026-04-24 06:29 41.69202 13.94481 22925 ft 360 kts 135°
2026-04-24 06:29 41.67359 13.96774 22498 ft 358 kts 135°
2026-04-24 06:29 41.65557 13.99013 22077 ft 357 kts 135°
2026-04-24 06:29 41.63726 14.01286 21653 ft 356 kts 135°
2026-04-24 06:30 41.61960 14.03558 21232 ft 354 kts 132°
2026-04-24 06:30 41.60292 14.05939 20834 ft 352 kts 130°
2026-04-24 06:30 41.58641 14.08338 20431 ft 350 kts 130°
2026-04-24 06:30 41.56997 14.10734 20024 ft 349 kts 130°
2026-04-24 06:31 41.55370 14.13104 19619 ft 347 kts 130°
2026-04-24 06:31 41.53753 14.15456 19213 ft 346 kts 130°
2026-04-24 06:31 41.52136 14.17805 18805 ft 345 kts 130°
2026-04-24 06:31 41.50524 14.20145 18400 ft 342 kts 130°
2026-04-24 06:32 41.48908 14.22485 17990 ft 341 kts 130°
2026-04-24 06:32 41.47310 14.24799 17590 ft 340 kts 130°
2026-04-24 06:32 41.45712 14.27107 17188 ft 338 kts 130°
2026-04-24 06:32 41.44139 14.29378 16795 ft 336 kts 129°
2026-04-24 06:33 41.42542 14.31630 16397 ft 333 kts 132°
2026-04-24 06:33 41.40844 14.33729 16012 ft 331 kts 135°
2026-04-24 06:33 41.39137 14.35733 15798 ft 325 kts 135°
2026-04-24 06:33 41.37442 14.37714 15690 ft 323 kts 135°
2026-04-24 06:34 41.35773 14.39664 15587 ft 321 kts 135°
2026-04-24 06:34 41.34076 14.41592 15441 ft 317 kts 138°
2026-04-24 06:34 41.32305 14.43256 15204 ft 311 kts 143°
2026-04-24 06:34 41.30500 14.44762 14965 ft 305 kts 144°
2026-04-24 06:35 41.28699 14.46240 14643 ft 300 kts 144°
2026-04-24 06:35 41.26940 14.47680 14320 ft 294 kts 145°
2026-04-24 06:35 41.25040 14.48600 13958 ft 298 kts 173°
2026-04-24 06:35 41.23017 14.48112 13607 ft 298 kts 206°
2026-04-24 06:36 41.21497 14.46360 13228 ft 294 kts 238°
2026-04-24 06:36 41.20501 14.44012 12958 ft 287 kts 239°
2026-04-24 06:36 41.19150 14.42139 12702 ft 285 kts 206°
2026-04-24 06:36 41.17264 14.41528 12499 ft 278 kts 170°
2026-04-24 06:37 41.15515 14.42376 12247 ft 266 kts 134°
2026-04-24 06:37 41.14424 14.44282 11982 ft 256 kts 110°
2026-04-24 06:37 41.13874 14.46465 11739 ft 251 kts 96°
2026-04-24 06:37 41.13772 14.48726 11479 ft 245 kts 80°
2026-04-24 06:38 41.14195 14.50896 11228 ft 240 kts 63°
2026-04-24 06:38 41.14895 14.52884 10994 ft 239 kts 63°
2026-04-24 06:38 41.15585 14.54885 10744 ft 238 kts 64°
2026-04-24 06:38 41.16238 14.56877 10492 ft 237 kts 64°
2026-04-24 06:39 41.16880 14.58890 10236 ft 236 kts 64°
2026-04-24 06:39 41.17509 14.60901 10020 ft 235 kts 65°
2026-04-24 06:39 41.18125 14.62897 9893 ft 235 kts 65°
2026-04-24 06:39 41.18741 14.64912 9771 ft 236 kts 65°
2026-04-24 06:40 41.19355 14.66922 9649 ft 236 kts 66°
2026-04-24 06:40 41.19967 14.68939 9521 ft 234 kts 66°
2026-04-24 06:40 41.20570 14.70942 9402 ft 234 kts 66°
2026-04-24 06:40 41.20960 14.72987 9199 ft 232 kts 90°
2026-04-24 06:41 41.20455 14.75019 9068 ft 235 kts 122°
2026-04-24 06:41 41.19211 14.76465 8960 ft 244 kts 144°
2026-04-24 06:41 41.17754 14.77611 8827 ft 243 kts 145°
2026-04-24 06:41 41.16314 14.78747 8684 ft 242 kts 144°
2026-04-24 06:42 41.14841 14.79853 8535 ft 244 kts 155°
2026-04-24 06:42 41.13147 14.80045 8361 ft 253 kts 195°
2026-04-24 06:42 41.11671 14.78832 8179 ft 254 kts 231°
2026-04-24 06:42 41.10710 14.76880 7951 ft 252 kts 244°
2026-04-24 06:43 41.09915 14.74817 7679 ft 250 kts 245°
2026-04-24 06:43 41.09112 14.72777 7404 ft 251 kts 243°
2026-04-24 06:43 41.08266 14.70760 7114 ft 250 kts 242°
2026-04-24 06:43 41.07408 14.68817 6988 ft 244 kts 241°
2026-04-24 06:44 41.06531 14.66897 6987 ft 245 kts 240°
2026-04-24 06:44 41.05631 14.64971 6882 ft 246 kts 240°
2026-04-24 06:44 41.04729 14.63068 6584 ft 243 kts 239°
2026-04-24 06:44 41.03836 14.61204 6225 ft 240 kts 239°
2026-04-24 06:45 41.02942 14.59345 5871 ft 241 kts 239°
2026-04-24 06:45 41.02049 14.57483 5521 ft 241 kts 239°
2026-04-24 06:45 41.01156 14.55614 5156 ft 241 kts 239°
2026-04-24 06:45 41.00256 14.53723 4797 ft 242 kts 239°
2026-04-24 06:46 40.99355 14.51826 4439 ft 244 kts 240°
2026-04-24 06:46 40.98463 14.49942 4076 ft 244 kts 239°
2026-04-24 06:46 40.97574 14.48065 3697 ft 239 kts 239°
2026-04-24 06:46 40.96697 14.46222 3355 ft 231 kts 239°
2026-04-24 06:47 40.95857 14.44448 3024 ft 223 kts 239°
2026-04-24 06:47 40.95058 14.42759 2707 ft 214 kts 240°
2026-04-24 06:47 40.94283 14.41121 2413 ft 205 kts 240°
2026-04-24 06:47 40.93560 14.39587 2174 ft 192 kts 239°
2026-04-24 06:48 40.92868 14.38123 1844 ft 179 kts 240°
2026-04-24 06:48 40.92247 14.36811 1601 ft 162 kts 240°
2026-04-24 06:48 40.91668 14.35582 1327 ft 152 kts 240°
2026-04-24 06:48 40.91125 14.34433 1110 ft 144 kts 239°
2026-04-24 06:49 40.90598 14.33315 916 ft 142 kts 239°
2026-04-24 06:49 40.90079 14.32211 708 ft 142 kts 239°
2026-04-24 06:49 40.89552 14.31101 509 ft 142 kts 239°
2026-04-24 06:49 40.89038 14.30009 310 ft 139 kts 238°
2026-04-24 06:50 40.88598 14.29064 302 ft 86 kts 237°
2026-04-24 06:50 40.88388 14.28621 302 ft 37 kts 238°
2026-04-24 06:50 40.88285 14.28476 302 ft 19 kts 209°
2026-04-24 06:50 40.88183 14.28405 302 ft 13 kts 207°
2026-04-24 06:51 40.88134 14.28372 302 ft 3 kts 207°
2026-04-24 06:51 40.88115 14.28359 302 ft 1 kts 207°
2026-04-24 06:51 40.88098 14.28348 302 ft 3 kts 207°
2026-04-24 06:51 40.88076 14.28333 302 ft 3 kts 231°
2026-04-24 06:52 40.88078 14.28289 302 ft 5 kts 279°
2026-04-24 06:52 40.88069 14.28230 302 ft 7 kts 234°
2026-04-24 06:52 40.88038 14.28172 302 ft 5 kts 233°
2026-04-24 06:52 40.88012 14.28151 302 ft 5 kts 188°
2026-04-24 06:53 40.87971 14.28141 302 ft 6 kts 201°
2026-04-24 06:53 40.87931 14.28097 302 ft 8 kts 229°
2026-04-24 06:53 40.87901 14.28077 302 ft 4 kts 161°
2026-04-24 06:53 40.87878 14.28097 302 ft 3 kts 140°
2026-04-24 06:54 40.87865 14.28112 302 ft 0 kts 137°
2026-04-24 06:54 40.87864 14.28114 302 ft 0 kts 139°
2026-04-24 06:54 40.87862 14.28115 302 ft 0 kts 139°